Temperature
16 16 16 16 16 17 18 21 22 22 23 23 22 23 22 21 20 18 16 16 16 16 16 16 15 15 15 15 15 15 14 14 14 14 14 14 14 14 14 14 14 14 14 14 14 14 14 14 14
15 15 16 17 17 17 19 21 21 22 22 22 22 22 22 20 18 17 16 16 15 15 15 15 15 15 15 15 15 15 14 14 14 14 14 14 14 14 14 14 14 14 14 14 14 14 14 14 14
15 15 16 17 17 18 20 21 21 21 21 21 21 21 21 19 18 16 16 16 15 15 15 15 15 15 15 15 14 14 14 14 14 14 13 13 14 14 14 14 14 14 14 14 14 14 14 14 14
14 15 17 17 17 19 20 21 21 21 21 21 21 20 19 18 17 16 16 15 15 15 15 15 15 15 15 14 14 14 14 14 14 14 13 13 13 13 14 14 14 14 14 14 14 14 14 14 14
14 16 16 16 17 19 20 21 21 21 20 21 20 19 17 17 17 16 16 15 15 14 14 15 14 14 14 14 14 14 14 14 14 14 13 13 13 13 13 14 14 14 13 13 14 14 14 14 14
15 16 16 16 18 19 20 21 21 20 20 20 20 19 17 16 16 16 15 15 14 14 14 14 14 14 14 14 14 14 14 13 13 13 13 13 13 13 13 13 13 13 13 13 13 13 13 14 14
15 15 16 17 18 19 20 20 20 19 19 20 19 19 17 16 16 15 15 14 14 14 13 14 13 13 14 14 14 13 13 13 13 13 13 13 13 13 13 13 13 13 13 13 13 13 13 13 13
15 15 16 17 17 18 19 19 19 19 19 19 19 18 16 15 15 15 14 14 14 13 13 13 13 13 13 13 13 13 13 13 13 13 13 13 13 13 13 13 13 13 13 13 13 13 13 13 13
14 14 15 16 17 17 18 18 18 18 18 18 17 17 16 15 15 14 14 13 13 13 13 13 13 13 13 13 13 13 13 12 12 12 12 12 12 12 12 13 13 13 12 12 13 13 13 13 13
14 13 15 16 17 16 17 17 17 17 17 17 17 16 15 15 14 14 13 13 13 13 12 12 12 12 12 12 12 12 12 12 12 12 12 12 12 12 12 12 12 12 12 12 12 12 12 12 12
14 13 15 15 16 16 15 16 16 16 15 16 16 15 15 14 14 13 13 13 13 12 12 12 12 12 12 12 12 12 12 12 12 12 12 12 12 12 12 12 12 12 12 12 12 12 12 12 12
14 14 15 15 15 15 15 15 15 15 15 16 16 15 15 14 14 13 13 13 12 12 12 12 12 12 12 12 11 11 11 11 11 11 11 11 12 12 12 12 12 12 12 12 12 12 12 11 11
13 13 14 14 14 14 14 14 14 14 15 15 15 14 14 14 14 13 13 12 12 12 12 12 12 12 11 11 11 11 11 11 11 11 11 11 11 11 11 12 12 12 12 12 12 11 11 11 11
13 13 13 13 14 14 13 13 14 14 14 14 14 14 14 14 13 13 13 12 12 12 12 11 11 11 11 11 11 11 11 11 11 11 11 11 11 11 11 11 11 11 11 11 11 11 11 11 11
12 12 12 13 13 13 13 12 13 14 14 14 14 14 13 13 13 13 12 12 12 12 11 11 11 11 11 11 11 10 10 10 10 10 10 11 11 11 11 11 11 11 11 11 11 11 11 11 11
12 11 11 13 13 13 12 11 13 14 14 14 14 14 13 13 13 12 12 12 11 11 11 11 11 11 11 10 10 10 10 10 10 10 10 10 11 11 11 11 11 11 11 11 11 11 11 11 10
11 10 11 12 13 13 12 11 13 14 14 14 14 13 13 13 12 12 12 11 11 11 11 11 11 10 10 10 10 10 10 10 10 10 10 10 10 10 10 10 10 10 10 10 10 10 10 10 10
10 10 11 11 12 12 11 11 12 13 13 13 13 13 13 13 12 12 12 11 11 11 10 10 10 10 10 10 10 9 9 9 9 9 10 10 10 10 10 10 10 10 10 10 10 10 10 9 9
10 10 10 11 12 11 11 11 12 12 12 12 13 13 13 12 12 12 11 11 11 10 10 10 10 9 9 9 9 9 9 9 9 9 9 9 9 10 10 10 10 9 10 9 9 9 9 9 9
10 9 9 10 11 11 10 10 11 12 11 12 12 12 12 12 12 11 11 10 10 10 10 9 9 9 9 9 9 9 9 8 9 9 9 9 9 9 9 9 9 9 9 9 9 9 9 8 8
9 9 9 9 10 10 9 9 10 11 12 12 12 12 12 11 11 11 10 10 9 9 9 9 9 9 9 9 8 8 8 8 8 8 8 8 9 9 9 9 9 9 9 9 8 8 8 8 8
8 9 9 9 8 8 9 7 10 10 10 11 11 11 11 11 10 10 9 9 9 9 8 8 8 8 8 8 8 8 8 8 8 8 8 8 8 8 8 8 8 8 8 8 8 8 8 8 8
8 9 9 8 7 7 8 7 9 10 10 10 10 11 10 10 10 9 9 8 8 8 8 8 8 7 7 7 8 8 8 8 8 8 8 8 8 8 8 8 8 8 8 8 8 8 7 7 7
8 8 8 7 7 6 8 8 8 9 10 10 10 10 10 9 9 9 8 8 7 7 7 7 7 7 7 7 7 7 7 7 7 7 7 7 7 7 7 8 8 8 8 8 8 7 7 7 7
7 6 6 6 6 6 8 8 8 10 10 10 9 9 9 9 8 8 8 7 7 7 7 7 7 7 7 7 7 7 7 7 7 7 7 7 7 7 7 7 7 7 7 7 7 7 7 7 6
6 6 6 6 6 7 8 7 8 9 9 10 9 9 8 8 8 7 7 7 6 6 6 6 6 6 6 6 6 6 6 6 7 7 7 7 7 7 7 7 7 7 7 7 7 7 7 6 6
6 6 7 6 5 6 7 8 9 9 9 8 9 8 8 8 7 7 6 6 6 6 6 6 6 6 6 6 6 6 6 6 6 6 6 6 7 6 6 6 6 6 6 6 6 6 6 6 6
7 6 5 5 5 6 7 7 7 7 7 7 7 7 7 7 7 6 6 6 5 6 6 5 5 6 6 6 6 6 6 6 6 6 6 6 6 6 6 6 6 6 6 6 6 6 5 5 5
5 5 5 5 5 5 6 7 8 7 7 7 7 7 7 7 6 6 5 5 5 5 5 5 5 5 5 5 5 5 5 5 5 5 6 6 6 6 6 6 5 5 5 5 5 5 5 5 5
6 6 5 4 4 5 5 6 8 7 7 7 7 7 7 6 6 5 5 5 5 5 5 5 5 5 5 5 5 5 5 5 5 5 5 5 5 5 5 5 5 5 5 5 5 5 5 4 4
Wind_Speed
9 10 7 3 3 5 10 8 5 1 1 3 5 4 4 4 4 6 4 5 10 11 12 11 12 12 11 11 11 11 10 10 9 9 8 8 9 9 9 9 9 9 9 10 10 9 10 11 10
9 7 4 3 5 8 9 9 6 3 1 3 3 3 2 3 6 7 4 6 10 11 12 11 12 12 11 11 10 11 10 9 9 9 8 9 9 10 9 9 9 9 9 9 9 9 10 10 10
9 6 4 4 6 9 7 2 4 2 3 2 1 1 2 3 5 5 5 7 9 10 12 12 13 12 11 11 10 10 10 9 9 8 8 8 9 9 9 8 9 8 8 8 9 8 9 9 9
4 3 4 6 12 11 7 2 1 3 2 2 2 2 3 4 4 6 7 7 9 9 12 13 13 12 12 11 10 10 9 9 8 8 8 8 8 8 7 7 8 8 8 8 8 8 8 8 8
4 4 6 8 13 11 6 2 1 2 3 3 3 2 3 4 9 9 7 7 9 8 11 13 13 12 11 11 10 10 9 9 8 8 8 9 8 8 7 7 7 8 7 7 7 7 7 7 7
4 4 6 11 12 10 7 4 4 5 3 3 2 3 3 5 7 7 6 6 8 8 10 12 13 12 11 11 10 10 9 9 8 8 8 8 8 7 7 7 7 7 6 7 7 6 6 7 6
4 5 9 11 10 8 6 3 4 3 4 2 2 2 4 5 6 6 6 6 8 8 9 9 10 11 11 11 10 10 10 9 8 7 7 7 6 6 7 7 7 6 6 6 6 5 6 6 5
4 4 9 10 10 9 3 2 2 3 3 2 2 1 3 6 6 6 5 5 7 7 7 7 8 9 9 9 10 10 9 9 8 7 7 6 5 6 6 6 6 6 5 5 5 5 5 5 4
4 5 9 10 8 5 1 3 2 1 2 2 1 1 6 9 7 5 5 4 5 6 6 6 6 7 8 8 9 10 9 9 8 7 7 5 4 4 5 6 6 5 5 5 5 4 4 4 3
5 7 10 6 5 3 3 3 3 2 4 4 2 3 7 8 8 7 6 6 6 6 6 6 6 6 7 7 8 8 7 7 7 6 5 4 4 3 4 5 5 5 5 4 4 4 4 3 3
6 8 8 7 6 4 5 6 5 5 6 6 4 5 6 7 7 7 7 6 6 7 6 6 5 6 6 5 5 5 5 6 6 6 5 4 4 4 4 4 4 3 3 3 2 2 3 2 2
9 10 9 7 5 5 6 6 7 8 8 5 4 2 5 7 8 8 8 7 6 7 7 6 6 6 6 6 4 4 4 4 4 5 5 4 3 3 3 2 3 2 2 2 2 0 1 1 1
11 10 9 8 7 7 8 9 8 10 8 6 4 3 4 6 6 6 6 6 6 7 7 7 7 7 6 5 4 4 4 4 5 5 5 5 3 2 2 2 2 2 2 2 1 1 1 1 1
6 7 9 9 9 8 10 11 10 11 8 7 6 6 5 6 6 6 5 6 6 6 7 7 7 6 6 5 4 4 4 5 5 4 5 5 4 3 2 2 2 2 2 2 1 1 1 1 1
6 8 10 11 11 8 7 11 12 11 9 8 8 7 6 6 6 6 6 5 6 6 6 7 7 6 6 6 5 4 5 5 4 4 5 5 4 3 3 2 1 1 2 2 1 1 2 1 1
7 7 8 7 9 7 7 12 8 8 9 9 8 7 7 7 7 6 6 5 5 6 6 7 7 7 7 5 5 4 5 5 5 5 5 5 4 4 3 2 2 2 2 2 2 1 1 1 1
7 7 9 7 7 6 9 10 7 7 8 8 8 7 7 7 7 6 6 7 6 6 6 6 6 8 7 6 5 5 4 4 5 5 5 5 5 4 3 2 2 2 1 1 2 2 2 1 1
6 7 8 8 5 7 10 11 8 6 8 8 8 7 7 7 7 6 6 6 6 6 6 6 5 6 6 6 4 4 4 4 4 4 5 6 5 4 4 3 3 3 2 1 1 2 2 1 1
8 8 10 10 7 7 10 12 10 7 7 8 8 7 6 6 5 4 5 5 5 5 6 6 5 5 5 5 5 5 4 4 4 4 5 6 5 5 4 2 3 3 2 1 2 2 2 1 1
9 10 10 8 5 6 10 13 11 10 10 10 9 8 6 4 3 4 5 5 5 5 6 6 6 6 6 5 5 4 4 3 4 3 4 6 6 6 4 3 3 3 2 2 2 3 2 1 1
9 9 8 8 8 7 9 10 10 8 8 7 7 5 4 5 4 3 4 5 5 5 5 6 6 6 6 5 4 4 3 3 3 4 4 4 5 6 5 4 3 3 3 3 3 3 3 2 0
8 6 8 7 5 5 4 6 7 6 7 7 5 4 4 3 3 3 3 4 4 4 4 5 6 6 6 6 6 6 6 5 4 4 4 4 5 6 6 5 4 3 3 3 3 3 3 3 2
5 5 7 7 7 7 6 6 6 7 7 6 4 3 2 2 3 3 3 3 3 3 4 4 5 5 5 6 7 6 4 3 3 4 5 5 4 5 6 6 5 4 3 3 3 2 2 3 3
3 3 5 5 3 6 8 7 5 4 4 3 2 2 2 2 3 3 3 3 2 2 3 4 5 5 5 6 6 6 6 4 5 5 5 4 3 3 4 5 5 4 4 4 4 4 3 3 2
2 0 1 2 4 6 4 5 5 2 2 2 2 2 3 3 3 3 3 3 3 3 3 3 5 5 5 6 6 6 6 6 6 6 6 5 4 3 4 4 4 4 4 4 3 4 4 3 3
4 3 3 3 3 3 3 5 3 0 2 3 4 3 2 3 3 3 3 2 2 3 3 3 4 4 5 6 6 6 6 5 4 5 5 5 4 4 4 4 4 4 4 4 4 3 4 3 3
3 4 2 2 4 4 4 4 3 2 2 2 3 3 3 3 3 3 3 2 2 3 3 3 3 4 4 5 5 5 5 5 4 4 4 4 4 4 5 5 4 4 4 4 4 3 4 4 3
4 1 1 2 3 4 4 4 3 0 1 1 1 2 2 3 3 2 2 2 2 3 3 3 3 3 3 4 4 4 5 5 5 5 5 4 4 4 5 5 5 5 4 5 4 3 3 4 3
3 2 3 3 3 3 3 2 2 2 2 2 1 1 1 2 2 2 2 2 1 2 2 3 3 3 3 4 4 4 4 4 4 5 5 5 4 5 6 5 5 5 5 5 5 4 4 5 4
3 4 3 3 4 3 3 4 2 2 3 2 1 1 1 1 1 1 1 1 1 1 2 2 3 3 4 4 4 4 4 4 4 4 4 4 4 4 5 5 5 5 5 5 5 5 4 5 5
Wind_Direction
286 263 244 240 231 230 239 238 246 239 291 21 20 4 360 12 24 106 148 111 112 123 127 131 130 128 125 120 118 117 114 111 108 107 107 107 108 109 109 106 103 100 97 93 88 86 84 80 79
277 263 242 232 232 233 236 223 228 237 121 57 33 358 354 61 74 106 120 111 116 119 124 128 126 125 125 123 121 119 116 114 109 107 106 106 108 107 105 105 103 99 97 95 91 90 89 84 82
269 255 237 227 231 234 241 189 161 154 110 114 119 13 352 57 89 111 124 124 117 116 123 125 127 124 123 123 124 121 120 119 114 110 110 110 110 107 103 103 103 99 95 94 92 92 93 90 87
257 228 240 240 240 243 257 270 72 127 125 135 170 127 94 52 67 101 121 124 117 116 119 126 128 125 123 124 123 124 122 121 117 112 111 111 111 110 108 107 108 103 98 95 94 92 91 91 91
240 235 226 236 244 250 258 253 266 240 188 186 196 175 100 85 89 107 124 128 121 118 118 130 132 129 126 124 123 123 124 122 117 113 108 105 107 108 108 108 107 103 102 101 95 94 94 91 89
237 235 228 233 239 242 243 240 234 242 225 201 210 209 135 119 111 121 130 129 122 121 120 130 135 133 131 129 125 122 120 120 118 116 114 110 107 109 108 106 106 103 100 102 100 96 99 97 92
245 246 243 247 252 249 240 228 234 238 243 230 237 215 141 128 121 125 128 126 120 121 122 126 134 135 135 132 129 127 123 119 117 115 113 113 113 112 117 111 111 112 109 106 107 104 106 103 99
269 269 250 247 249 256 261 260 262 266 276 308 297 217 139 129 116 119 120 122 123 126 128 131 134 136 133 133 134 131 127 122 118 115 112 114 119 115 120 118 120 124 122 120 119 112 112 111 111
261 246 244 245 245 260 289 281 273 319 287 271 300 29 108 123 124 129 133 132 132 131 134 136 138 136 134 136 137 133 129 125 122 122 121 119 109 112 118 120 124 131 135 127 128 130 133 133 137
223 236 245 272 294 290 305 296 287 265 248 245 208 108 128 138 149 160 168 165 159 153 148 146 144 138 137 140 136 138 137 136 133 132 130 124 115 119 125 130 133 137 142 139 144 158 165 166 174
218 238 259 283 303 299 292 285 278 263 253 245 227 170 154 160 172 181 185 184 176 164 158 154 150 142 138 132 137 134 137 138 137 134 131 122 114 112 108 115 126 138 144 139 147 176 186 184 160
240 248 257 268 288 277 272 276 273 263 266 282 280 213 174 185 192 193 194 191 178 169 165 159 153 149 145 142 142 138 132 125 125 133 138 120 102 102 101 108 123 136 130 123 121 148 193 181 170
244 253 260 267 273 271 272 263 266 261 264 272 261 225 211 205 209 203 196 190 181 177 170 166 160 158 152 148 152 149 142 134 132 134 144 136 120 121 116 103 105 118 117 104 79 38 33 15 64
258 265 265 261 257 254 257 260 251 251 244 242 231 221 215 212 209 205 200 192 188 183 173 168 164 159 154 155 158 154 146 139 136 138 145 143 134 131 123 110 99 94 105 113 102 89 67 24 39
270 272 269 253 243 240 248 254 238 239 239 234 227 218 216 216 208 207 201 194 190 185 176 168 169 161 161 162 161 152 146 141 139 142 144 143 136 132 128 125 120 114 116 112 86 61 71 75 78
257 253 254 245 231 223 224 250 238 229 235 234 229 221 220 216 212 206 194 190 187 181 177 175 172 163 165 162 159 153 153 148 146 145 146 146 138 132 120 119 112 102 111 113 126 126 92 67 84
235 245 253 260 234 233 232 251 241 230 235 235 234 227 221 219 215 204 191 188 188 181 173 173 170 167 166 162 159 156 152 149 146 143 145 145 141 141 126 119 115 106 106 115 138 120 111 90 69
248 256 263 263 250 258 253 257 253 245 240 240 240 236 221 220 218 200 189 182 175 171 166 165 168 165 164 161 158 153 153 156 148 145 147 145 146 142 127 122 122 112 110 118 121 120 99 104 96
282 280 276 276 282 277 265 265 259 247 247 246 242 239 229 222 213 187 169 167 160 159 165 166 167 168 164 164 166 166 170 163 154 150 149 151 152 146 135 129 128 128 135 142 129 113 106 91 87
268 271 277 283 289 287 277 271 262 246 241 238 237 236 231 226 202 170 160 160 163 166 167 165 171 177 174 171 173 170 162 158 153 144 146 150 151 152 154 149 151 149 145 140 136 125 121 114 97
262 260 271 283 303 277 277 274 249 246 240 241 236 230 224 216 206 181 169 166 168 174 174 176 171 178 176 165 152 150 137 134 150 158 160 157 157 157 154 156 152 156 158 166 162 154 142 158 233
261 270 276 281 287 272 253 277 252 231 234 233 225 219 212 204 181 179 163 155 168 174 170 169 171 180 177 169 167 172 173 174 176 168 164 160 161 161 159 160 158 158 157 166 171 165 156 154 176
265 291 282 270 264 278 253 253 261 209 224 222 206 198 180 167 168 174 161 150 155 155 160 168 168 171 171 173 171 174 175 168 152 157 161 164 166 166 163 165 164 167 167 171 168 161 156 165 170
297 305 290 261 247 256 236 228 265 227 229 214 184 163 144 128 135 146 142 131 130 135 156 165 170 173 174 177 174 175 177 169 162 166 167 166 164 169 167 169 169 171 168 170 174 169 170 178 173
254 248 301 247 222 242 228 225 249 239 174 150 132 123 118 112 115 119 120 127 141 149 168 181 179 177 179 181 179 180 178 178 178 172 171 168 170 181 183 174 172 172 172 172 170 169 178 180 180
225 212 221 237 243 282 274 236 250 216 87 99 107 110 119 117 120 125 132 136 146 154 167 182 183 182 182 180 178 180 179 184 182 175 172 175 178 181 173 173 174 176 175 174 171 176 184 184 184
232 228 257 280 289 276 246 243 258 184 105 86 104 128 134 125 122 138 141 140 148 155 166 179 173 173 179 175 173 181 178 181 178 174 170 169 170 169 169 172 175 180 176 173 171 184 186 181 186
269 287 151 211 241 257 246 242 254 230 147 102 123 133 128 120 120 127 145 150 155 159 164 169 174 181 178 168 174 178 175 178 175 166 172 171 170 167 170 176 179 183 182 179 181 187 190 184 190
221 249 234 242 252 252 267 263 5 85 93 105 98 119 136 135 137 132 129 145 148 144 152 168 178 182 176 171 173 175 177 174 168 169 172 173 176 172 174 178 183 190 192 188 185 189 187 191 192
245 226 208 224 255 247 267 268 1 73 89 76 48 126 141 126 116 119 115 119 130 148 157 174 184 186 183 174 174 178 174 167 167 169 170 169 174 173 170 173 186 192 192 188 185 189 190 192 194
Height
1495 1497 1499 1502 1504 1503 1497 1486 1479 1480 1480 1482 1483 1484 1486 1489 1493 1503 1503 1502 1502 1502 1504 1506 1508 1510 1511 1513 1515 1517 1518 1519 1521 1522 1523 1524 1525 1526 1527 1528 1528 1529 1530 1531 1531 1532 1533 1533 1533
1495 1497 1501 1501 1502 1503 1492 1481 1480 1480 1481 1483 1485 1486 1488 1491 1494 1497 1499 1501 1501 1502 1504 1506 1508 1510 1511 1513 1515 1517 1518 1519 1521 1522 1523 1524 1525 1526 1527 1528 1529 1530 1531 1531 1532 1533 1533 1533 1534
1494 1497 1499 1497 1496 1493 1484 1477 1477 1479 1482 1484 1487 1488 1490 1494 1496 1497 1499 1500 1501 1502 1504 1505 1507 1509 1511 1513 1515 1516 1518 1519 1521 1522 1523 1524 1525 1526 1527 1528 1529 1530 1531 1532 1532 1533 1534 1534 1534
1495 1498 1497 1496 1491 1482 1478 1477 1477 1479 1482 1484 1487 1489 1492 1495 1496 1497 1498 1500 1501 1502 1503 1505 1507 1509 1511 1513 1515 1516 1518 1519 1520 1522 1523 1524 1525 1526 1527 1528 1529 1529 1530 1532 1532 1533 1534 1534 1535
1495 1496 1495 1493 1487 1479 1476 1476 1478 1480 1482 1484 1486 1489 1492 1495 1495 1496 1498 1500 1501 1502 1503 1505 1507 1509 1511 1513 1514 1516 1517 1519 1520 1521 1523 1524 1525 1526 1527 1528 1528 1529 1530 1532 1532 1533 1534 1534 1535
1495 1492 1493 1490 1483 1477 1477 1477 1478 1480 1481 1483 1486 1488 1492 1494 1494 1496 1498 1500 1501 1501 1503 1504 1506 1508 1510 1512 1514 1515 1517 1518 1519 1521 1522 1523 1524 1525 1526 1527 1528 1529 1530 1531 1532 1533 1533 1534 1535
1493 1490 1488 1483 1480 1477 1476 1477 1478 1480 1481 1483 1485 1487 1490 1492 1493 1495 1497 1499 1500 1501 1502 1503 1505 1507 1509 1511 1513 1514 1516 1517 1519 1520 1521 1523 1524 1525 1526 1527 1528 1529 1530 1531 1532 1532 1533 1534 1534
1489 1489 1484 1481 1479 1477 1476 1477 1478 1480 1481 1484 1485 1486 1489 1490 1492 1494 1496 1498 1499 1500 1501 1503 1504 1506 1508 1510 1512 1513 1515 1516 1518 1519 1520 1522 1523 1524 1525 1526 1527 1528 1529 1530 1531 1532 1532 1533 1534
1489 1490 1484 1478 1477 1476 1476 1477 1479 1480 1482 1483 1484 1485 1487 1488 1490 1492 1494 1496 1498 1499 1500 1501 1503 1504 1506 1508 1510 1512 1514 1515 1517 1518 1519 1521 1522 1523 1524 1525 1526 1528 1528 1529 1530 1531 1532 1533 1533
1486 1486 1479 1476 1475 1476 1477 1478 1480 1480 1481 1482 1484 1485 1486 1487 1489 1490 1492 1494 1495 1497 1498 1500 1501 1503 1505 1507 1508 1510 1512 1514 1515 1517 1518 1519 1520 1522 1523 1524 1525 1526 1527 1528 1529 1530 1531 1532 1532
1482 1480 1477 1477 1476 1477 1478 1479 1480 1480 1480 1481 1482 1483 1484 1485 1487 1489 1490 1492 1493 1495 1496 1498 1499 1501 1503 1505 1506 1508 1510 1512 1513 1515 1516 1517 1519 1520 1521 1523 1524 1525 1526 1527 1528 1529 1530 1531 1531
1478 1476 1476 1476 1477 1478 1478 1478 1478 1478 1479 1479 1479 1480 1481 1483 1484 1486 1488 1490 1491 1493 1494 1496 1497 1499 1501 1502 1504 1506 1508 1510 1511 1513 1514 1515 1517 1518 1520 1521 1522 1523 1524 1525 1526 1527 1528 1529 1530
1476 1475 1475 1476 1476 1476 1476 1476 1476 1475 1476 1477 1477 1478 1479 1480 1482 1483 1485 1487 1489 1490 1491 1493 1495 1496 1498 1500 1502 1504 1506 1507 1509 1511 1512 1513 1515 1516 1518 1519 1520 1521 1522 1523 1524 1525 1527 1527 1528
1474 1474 1474 1473 1473 1474 1474 1473 1474 1471 1473 1474 1474 1475 1476 1477 1479 1480 1482 1484 1485 1487 1488 1490 1492 1494 1496 1497 1499 1501 1503 1505 1507 1509 1510 1511 1513 1514 1515 1517 1518 1519 1520 1521 1523 1523 1524 1525 1526
1474 1474 1472 1470 1470 1470 1472 1471 1468 1468 1470 1470 1470 1472 1473 1474 1475 1477 1478 1480 1481 1483 1485 1487 1488 1491 1493 1495 1497 1499 1501 1503 1504 1506 1508 1509 1510 1512 1513 1515 1516 1517 1518 1519 1520 1521 1522 1523 1524
1473 1473 1472 1466 1466 1466 1473 1468 1463 1465 1466 1466 1467 1468 1469 1470 1472 1473 1474 1476 1478 1480 1481 1483 1485 1487 1489 1492 1494 1496 1498 1500 1502 1504 1505 1507 1508 1509 1511 1512 1513 1514 1515 1517 1518 1519 1520 1520 1521
1473 1473 1469 1466 1463 1463 1466 1463 1461 1461 1462 1462 1463 1464 1465 1466 1468 1470 1471 1472 1474 1476 1477 1479 1481 1483 1486 1488 1491 1493 1495 1497 1499 1501 1502 1504 1505 1507 1508 1510 1511 1512 1513 1514 1515 1516 1517 1518 1519
1472 1469 1465 1464 1461 1461 1462 1459 1458 1457 1458 1458 1459 1460 1461 1462 1464 1466 1467 1468 1470 1472 1473 1475 1477 1479 1482 1485 1488 1490 1492 1494 1496 1498 1500 1501 1503 1504 1505 1507 1509 1510 1511 1512 1513 1514 1515 1516 1517
1467 1467 1465 1462 1459 1461 1459 1456 1455 1454 1455 1455 1455 1456 1457 1458 1460 1462 1463 1464 1466 1468 1470 1471 1473 1476 1479 1481 1483 1486 1488 1491 1493 1495 1497 1499 1500 1501 1503 1504 1506 1508 1509 1510 1510 1511 1513 1514 1514
1467 1468 1466 1462 1459 1460 1459 1454 1451 1450 1450 1450 1451 1452 1452 1454 1456 1458 1459 1461 1462 1464 1466 1468 1469 1472 1475 1477 1480 1483 1486 1488 1490 1492 1494 1496 1497 1499 1500 1502 1504 1505 1507 1507 1508 1509 1510 1511 1513
1466 1467 1465 1464 1461 1458 1459 1454 1448 1445 1445 1446 1447 1447 1449 1451 1453 1455 1456 1457 1459 1460 1462 1464 1466 1469 1472 1474 1477 1480 1483 1485 1487 1489 1491 1493 1494 1496 1497 1499 1501 1502 1504 1505 1505 1506 1507 1509 1510
1465 1462 1462 1462 1466 1465 1460 1462 1446 1443 1443 1442 1443 1444 1445 1448 1449 1452 1453 1454 1456 1457 1459 1461 1464 1466 1468 1471 1473 1476 1478 1480 1482 1485 1487 1489 1491 1493 1494 1496 1498 1499 1500 1502 1503 1504 1505 1506 1507
1462 1460 1460 1462 1465 1465 1460 1463 1448 1439 1441 1440 1440 1442 1443 1445 1447 1449 1451 1452 1453 1455 1457 1458 1461 1462 1464 1467 1470 1472 1475 1477 1480 1482 1484 1486 1488 1490 1491 1493 1494 1496 1497 1499 1500 1501 1502 1503 1504
1460 1461 1461 1461 1464 1468 1455 1457 1447 1439 1438 1437 1438 1439 1441 1443 1445 1447 1448 1450 1451 1452 1454 1455 1458 1459 1461 1464 1467 1469 1471 1474 1476 1478 1481 1483 1485 1486 1488 1489 1491 1493 1494 1495 1496 1498 1499 1500 1501
1462 1467 1471 1469 1468 1460 1446 1447 1444 1434 1433 1435 1437 1438 1440 1442 1443 1445 1446 1447 1448 1449 1451 1453 1455 1456 1458 1460 1463 1466 1469 1471 1473 1475 1477 1479 1481 1483 1484 1486 1488 1489 1491 1492 1493 1494 1495 1497 1498
1462 1463 1469 1469 1463 1455 1448 1448 1440 1433 1432 1433 1436 1438 1440 1441 1442 1443 1444 1445 1446 1447 1449 1450 1452 1454 1456 1458 1460 1463 1465 1467 1470 1472 1474 1476 1478 1480 1481 1483 1484 1486 1487 1489 1490 1491 1492 1493 1494
1460 1460 1460 1465 1462 1460 1451 1442 1437 1433 1433 1435 1436 1438 1439 1440 1441 1442 1443 1444 1445 1445 1446 1448 1449 1451 1453 1455 1457 1459 1462 1464 1466 1468 1471 1472 1474 1476 1478 1479 1481 1482 1484 1485 1486 1487 1488 1489 1491
1458 1458 1463 1466 1465 1458 1446 1442 1442 1436 1436 1437 1437 1438 1439 1440 1441 1442 1442 1442 1443 1443 1444 1446 1447 1449 1450 1452 1454 1456 1458 1461 1463 1465 1467 1469 1471 1473 1474 1476 1477 1479 1480 1481 1483 1484 1485 1486 1487
1460 1461 1461 1462 1459 1459 1453 1447 1436 1437 1437 1437 1438 1438 1439 1440 1440 1440 1441 1441 1441 1441 1442 1443 1445 1446 1448 1449 1451 1453 1455 1458 1460 1462 1464 1466 1468 1469 1471 1472 1474 1475 1477 1478 1479 1480 1482 1483 1484
1455 1456 1460 1465 1462 1456 1455 1451 1435 1435 1436 1436 1437 1438 1438 1439 1439 1440 1440 1440 1439 1440 1440 1441 1443 1444 1445 1447 1449 1451 1453 1455 1457 1459 1461 1462 1464 1466 1467 1469 1470 1472 1473 1474 1476 1476 1478 1479 1480